sat.trackr.live / text

‹ back to catalog

STARLINK-3132

NORAD 49457 · 2021-104BB

PAYLOAD ACTIVE UNKNOWN

§ Identity

Operator
Country
US
Launch date
2021-11-13
Launch site
AFETR
Launch vehicle
Mass (kg)
RCS (m²)

Purposes: comms

External: N2YO · Heavens-Above · Gunter

§ Orbital elements

Epoch: 2026-09-20T03:05:27.949344Z

Period
94.01 min
Inclination
53.1612°
Eccentricity
0.0000795
Mean motion
15.31701280 rev/d
Perigee alt
470.2 km
Apogee alt
471.3 km
Semi-major
6,848.9 km
B*
1.1654e-4
RAAN
53.5735°
Arg perigee
90.5098°
Mean anomaly
269.5995°
Rev number
26,829

§ Raw data

STARLINK-31321 49457U 21104BB  26263.12879571  .00003253  00000+0  11654-3 0  99982 49457  53.1612  53.5735 0000795  90.5098 269.5995 15.31701280268299

JSON: /api/v1/satellites/49457 · /tle

For live sub-satellite position, see the globe view (requires WebGL).

§ Visibility from observer

Set your observer location to see the next 7 days of passes ≥ 10°. The values pass through the URL so the page stays shareable.

No JS? Fill the form by hand. The geolocation button needs JavaScript.